Location: ?????????
(55.6553°N, 38.9075°E)
Time: 11:34:52
(UTC+00:00)

ATLAS 3B R/B - Pass Details

Date: 18 October 2019
Orbit: 1029 x 1166 km, 63.8° (Epoch: 10 November)

Event Time Altitude Azimuth Distance (km) Brightness Sun altitude
Exits shadow 01:27:55 24° 305° (NW) 2,005 3.8 -22.0°
Maximum altitude 01:32:10 72° 226° (SW) 1,097 2.5 -21.4°
Drops below altitude 10° 01:38:55 10° 144° (SE) 2,884 5.2 -20.5°
Sets 01:41:35 0° 142° (SE) 3,854 5.9 -20.1°
